Terminal Aerodrome Forecast
Issued by NWS Buffalo, NY

Home | Current Version | Previous Version | Text Only | Print | Product List | Glossary On
Versions: 1 2 3 4 5 6 7 8 9 10 11 12 13 14 15 16 17 18 19 20 21 22 23 24 25
000
FTUS41 KBUF 290900 AAA
TAFART
TAF AMD
KART 290927Z 2909/3006 09003KT P6SM FEW250
     FM292100 26004KT P6SM BKN200
     FM300200 VRB03KT P6SM BKN150=

USA.gov is the U.S. government's official web portal to all federal, state and local government web resources and services.